LEMUR-2-XUENITERENCE

Last updated on Wed Feb 14 2018 16:20:44 GMT+0000 (Coordinated Universal Time)

1 42772U 17036H 18044.90918769 .00001415 00000-0 67253-4 0 9993 2 42772 97.4186 106.3665 0016067 133.3434 226.9143 15.20736727 35765
UTC large
Height (km)
Speed (km/s)
/
Latitude / Longitude
Inclination (degrees)
Orbital Period (minutes)
Azimuth
Elevation
Range (km)
Doppler Factor

Next 0 passes for location: London (51.5072 / 0.1276)

Sorry there are no passes over London.